Preview of NWS' New Version of Forecast
This preview is not operational and should not be used for support decisions.

Regional Weather Roundup (RWR)

Issued by National Weather Service (NWS)

                            
000
ASUS43 KBIS 170002
RWRND 

NORTH DAKOTA REGIONAL WEATHER ROUNDUP
NATIONAL WEATHER SERVICE BISMARCK ND
700 PM CDT SUN JUN 16 2019

NOTE: "FAIR" INDICATES FEW OR NO CLOUDS BELOW 12,000 FEET WITH NO
SIGNIFICANT WEATHER AND/OR OBSTRUCTIONS TO VISIBILITY.


NDZ001>003-009>011-017-170100-
NORTHWEST NORTH DAKOTA
  
CITY           SKY/WX    TMP DP  RH WIND       PRES   REMARKS
WILLISTON      CLOUDY    65  44  46 N10       29.98R                  
6HR MIN TEMP:  59; 6HR MAX TEMP:  70;                                

MINOT          CLOUDY    59  48  67 N9        29.96S                  
MINOT AFB      PTSUNNY   61  47  59 N12       29.95R                  
$$
 
NDZ018>021-031>035-040>046-170100-
SOUTHWEST NORTH DAKOTA
  
CITY           SKY/WX    TMP DP  RH WIND       PRES   REMARKS
BISMARCK       SUNNY     68  45  43 NW16      29.94S                  
6HR MIN TEMP:  66; 6HR MAX TEMP:  70;                                

DICKINSON      SUNNY     68  49  50 N13       29.95R                  
GARRISON         N/A     60  48  64 N8        29.95R                  
6HR MIN TEMP:  56; 6HR MAX TEMP:  65;                                

HETTINGER ARPT PTSUNNY   71  48  43 NE13      29.95R                  
$$
 
NDZ004>008-012>016-024-026-027-054-170100-
NORTHEAST NORTH DAKOTA
  
CITY           SKY/WX    TMP DP  RH WIND       PRES   REMARKS
GRAND FORKS    LGT RAIN  60  55  83 SW3       29.84S                  
GRND FRKS AFB  CLOUDY    60  60 100 N8        29.85S                  
DEVILS LAKE    CLOUDY    53  52  96 NW12      29.91S FOG              
$$
 
NDZ022-023-025-028>030-036>039-047>053-170100-
SOUTHEAST NORTH DAKOTA
  
CITY           SKY/WX    TMP DP  RH WIND       PRES   REMARKS
FARGO          CLOUDY    64  51  62 W10       29.87S                  
6HR MIN TEMP:  64; 6HR MAX TEMP:  69;                                

JAMESTOWN      CLOUDY    61  52  72 NW14      29.90R                  
$$